TX544 MKJP-TFFR

Flight info

Callsign TX544
Flight time 1h 51m
Altitude 39000
Route ENEKA7 MLY UH106 NOSIS UL349 SATOE L349 GESSO L204 COY R888 MODUX/N0467F230 R888 GORET GORET2Z
Aircraft A35K/H-SDE2E3GHIJ3J4J5LM1ORWXY/LB1D1

Departure

Time 2026-04-26 06:36
Airport Norman Manley International Airport (MKJP)

Arrival

Time 2026-04-26 08:28
Airport Maryse Condé International Airport (TFFR)
Time Latitude Longitude Altitude Speed Heading
2026-04-26 06:08 17.93626 -76.77831 24 ft 0 kts 111°
2026-04-26 06:27 17.93626 -76.77832 24 ft 2 kts 111°
2026-04-26 06:28 17.93634 -76.77852 30 ft 2 kts 108°
2026-04-26 06:28 17.93642 -76.77869 30 ft 4 kts 185°
2026-04-26 06:28 17.93650 -76.77867 27 ft 3 kts 201°
2026-04-26 06:28 17.93624 -76.77870 30 ft 4 kts 178°
2026-04-26 06:29 17.93643 -76.77871 30 ft 3 kts 163°
2026-04-26 06:29 17.93645 -76.77865 30 ft 4 kts 22°
2026-04-26 06:29 17.93671 -76.77858 29 ft 4 kts 14°
2026-04-26 06:29 17.93684 -76.77853 28 ft 0 kts 19°
2026-04-26 06:31 17.93684 -76.77854 28 ft 0 kts 19°
2026-04-26 06:31 17.93680 -76.77855 28 ft 1 kts 19°
2026-04-26 06:31 17.93674 -76.77857 29 ft 1 kts 19°
2026-04-26 06:32 17.93675 -76.77860 29 ft 2 kts 359°
2026-04-26 06:32 17.93680 -76.77878 29 ft 3 kts 261°
2026-04-26 06:32 17.93655 -76.77886 29 ft 6 kts 189°
2026-04-26 06:32 17.93590 -76.77897 27 ft 11 kts 194°
2026-04-26 06:33 17.93507 -76.77928 30 ft 14 kts 202°
2026-04-26 06:33 17.93425 -76.77938 28 ft 11 kts 150°
2026-04-26 06:33 17.93385 -76.77865 29 ft 13 kts 115°
2026-04-26 06:33 17.93348 -76.77773 28 ft 11 kts 114°
2026-04-26 06:34 17.93292 -76.77744 30 ft 10 kts 180°
2026-04-26 06:34 17.93224 -76.77766 31 ft 11 kts 195°
2026-04-26 06:34 17.93167 -76.77729 27 ft 11 kts 111°
2026-04-26 06:34 17.93175 -76.77648 27 ft 12 kts 75°
2026-04-26 06:35 17.93152 -76.77576 27 ft 9 kts 149°
2026-04-26 06:35 17.93132 -76.77588 27 ft 3 kts 249°
2026-04-26 06:35 17.93132 -76.77627 27 ft 7 kts 282°
2026-04-26 06:35 17.93146 -76.77668 26 ft 0 kts 292°
2026-04-26 06:36 17.93146 -76.77669 26 ft 4 kts 292°
2026-04-26 06:36 17.93277 -76.78007 27 ft 98 kts 292°
2026-04-26 06:36 17.93641 -76.78960 91 ft 174 kts 291°
2026-04-26 06:36 17.94068 -76.80174 994 ft 184 kts 290°
2026-04-26 06:37 17.94550 -76.81468 2005 ft 200 kts 291°
2026-04-26 06:37 17.95123 -76.82893 2432 ft 224 kts 292°
2026-04-26 06:37 17.95771 -76.84469 2856 ft 245 kts 287°
2026-04-26 06:37 17.95760 -76.86294 3311 ft 262 kts 249°
2026-04-26 06:38 17.94602 -76.87750 3992 ft 267 kts 208°
2026-04-26 06:38 17.93430 -76.88115 4588 ft 268 kts 184°
2026-04-26 06:38 17.91629 -76.87602 5497 ft 271 kts 148°
2026-04-26 06:38 17.90254 -76.86276 6339 ft 276 kts 128°
2026-04-26 06:39 17.89448 -76.84432 7138 ft 283 kts 104°
2026-04-26 06:39 17.89037 -76.82395 7991 ft 287 kts 102°
2026-04-26 06:39 17.88650 -76.80321 8886 ft 292 kts 102°
2026-04-26 06:39 17.88252 -76.78213 9802 ft 296 kts 102°
2026-04-26 06:40 17.87840 -76.76057 10472 ft 309 kts 102°
2026-04-26 06:40 17.87400 -76.73765 10830 ft 331 kts 102°
2026-04-26 06:40 17.86930 -76.71315 11168 ft 353 kts 102°
2026-04-26 06:40 17.86432 -76.68721 11497 ft 372 kts 102°
2026-04-26 06:41 17.85911 -76.66002 11941 ft 385 kts 102°
2026-04-26 06:41 17.85430 -76.63210 12558 ft 392 kts 97°
2026-04-26 06:41 17.85275 -76.60331 13214 ft 398 kts 91°
2026-04-26 06:41 17.85236 -76.57406 13849 ft 403 kts 90°
2026-04-26 06:42 17.85228 -76.54443 14413 ft 408 kts 90°
2026-04-26 06:42 17.85231 -76.51447 14972 ft 413 kts 89°
2026-04-26 06:42 17.85240 -76.48456 15510 ft 418 kts 89°
2026-04-26 06:42 17.85252 -76.45383 16042 ft 423 kts 89°
2026-04-26 06:43 17.85264 -76.42278 16600 ft 427 kts 89°
2026-04-26 06:43 17.85278 -76.39149 17138 ft 431 kts 89°
2026-04-26 06:43 17.85291 -76.35979 17665 ft 435 kts 89°
2026-04-26 06:43 17.85304 -76.32783 18181 ft 440 kts 89°
2026-04-26 06:44 17.85317 -76.29555 18621 ft 444 kts 89°
2026-04-26 06:44 17.85329 -76.26292 19046 ft 449 kts 89°
2026-04-26 06:44 17.85341 -76.22996 19479 ft 453 kts 89°
2026-04-26 06:44 17.85353 -76.19677 19912 ft 457 kts 88°
2026-04-26 06:45 17.85364 -76.16319 20357 ft 461 kts 88°
2026-04-26 06:45 17.85375 -76.12934 20809 ft 466 kts 88°
2026-04-26 06:45 17.85385 -76.09566 21245 ft 470 kts 88°
2026-04-26 06:45 17.85395 -76.06114 21707 ft 475 kts 88°
2026-04-26 06:46 17.85404 -76.02629 22168 ft 479 kts 88°
2026-04-26 06:46 17.85413 -75.99111 22628 ft 483 kts 88°
2026-04-26 06:46 17.85421 -75.95567 23091 ft 488 kts 88°
2026-04-26 06:46 17.85429 -75.91993 23536 ft 492 kts 87°
2026-04-26 06:47 17.85436 -75.88377 23933 ft 496 kts 88°
2026-04-26 06:47 17.85442 -75.84737 24349 ft 499 kts 88°
2026-04-26 06:47 17.85447 -75.81076 24792 ft 502 kts 88°
2026-04-26 06:47 17.85452 -75.77398 25261 ft 506 kts 88°
2026-04-26 06:48 17.85456 -75.73699 25749 ft 509 kts 88°
2026-04-26 06:48 17.85460 -75.70016 26240 ft 513 kts 88°
2026-04-26 06:48 17.85463 -75.66248 26735 ft 516 kts 88°
2026-04-26 06:48 17.85465 -75.62470 27223 ft 520 kts 88°
2026-04-26 06:49 17.85466 -75.58649 27717 ft 524 kts 88°
2026-04-26 06:49 17.85467 -75.54804 28208 ft 528 kts 88°
2026-04-26 06:49 17.85467 -75.50936 28695 ft 531 kts 89°
2026-04-26 06:49 17.85466 -75.47039 29160 ft 535 kts 89°
2026-04-26 06:50 17.85465 -75.43171 29597 ft 539 kts 89°
2026-04-26 06:50 17.85462 -75.39225 30013 ft 543 kts 89°
2026-04-26 06:50 17.85459 -75.35251 30363 ft 546 kts 89°
2026-04-26 06:50 17.85455 -75.31249 30724 ft 550 kts 89°
2026-04-26 06:51 17.85450 -75.27215 31068 ft 553 kts 89°
2026-04-26 06:51 17.85437 -75.19127 31929 ft 554 kts 89°
2026-04-26 06:51 17.85430 -75.15082 32411 ft 553 kts 89°
2026-04-26 06:52 17.85421 -75.11045 32868 ft 553 kts 89°
2026-04-26 06:52 17.85412 -75.07008 33296 ft 554 kts 89°
2026-04-26 06:52 17.85402 -75.02967 33764 ft 552 kts 89°
2026-04-26 06:52 17.85392 -74.98939 34216 ft 551 kts 89°
2026-04-26 06:53 17.85380 -74.94922 34628 ft 550 kts 90°
2026-04-26 06:53 17.85368 -74.90914 35009 ft 549 kts 90°
2026-04-26 06:53 17.85355 -74.86914 35385 ft 548 kts 90°
2026-04-26 06:53 17.85341 -74.82912 35766 ft 547 kts 90°
2026-04-26 06:54 17.85326 -74.78927 36137 ft 546 kts 90°
2026-04-26 06:54 17.85311 -74.74939 36503 ft 546 kts 90°
2026-04-26 06:54 17.85295 -74.70957 36851 ft 545 kts 90°
2026-04-26 06:54 17.85278 -74.67030 37190 ft 544 kts 90°
2026-04-26 06:55 17.85260 -74.63058 37522 ft 543 kts 90°
2026-04-26 06:55 17.85242 -74.59093 37842 ft 543 kts 91°
2026-04-26 06:55 17.85222 -74.55131 38159 ft 542 kts 91°
2026-04-26 06:55 17.85202 -74.51181 38477 ft 541 kts 91°
2026-04-26 06:56 17.85181 -74.47227 38752 ft 540 kts 91°
2026-04-26 06:56 17.85160 -74.43275 38913 ft 541 kts 91°
2026-04-26 06:56 17.85114 -74.35361 38936 ft 542 kts 91°
2026-04-26 06:57 17.85065 -74.27451 38936 ft 543 kts 91°
2026-04-26 06:57 17.85013 -74.19570 38937 ft 543 kts 91°
2026-04-26 06:58 17.84965 -74.11649 38938 ft 543 kts 90°
2026-04-26 06:58 17.85215 -74.03718 38941 ft 543 kts 87°
2026-04-26 06:59 17.85607 -73.95797 38941 ft 543 kts 87°
2026-04-26 06:59 17.85960 -73.87866 38947 ft 543 kts 88°
2026-04-26 07:00 17.86270 -73.79935 38949 ft 543 kts 88°
2026-04-26 07:00 17.86562 -73.72055 38953 ft 543 kts 88°
2026-04-26 07:01 17.86853 -73.64122 38950 ft 543 kts 88°
2026-04-26 07:01 17.87141 -73.56196 38949 ft 543 kts 88°
2026-04-26 07:02 17.87428 -73.48273 38953 ft 543 kts 88°
2026-04-26 07:02 17.87711 -73.40345 38952 ft 543 kts 88°
2026-04-26 07:03 17.87992 -73.32417 38950 ft 543 kts 88°
2026-04-26 07:03 17.88262 -73.24541 38955 ft 543 kts 89°
2026-04-26 07:04 17.88525 -73.16605 38951 ft 543 kts 89°
2026-04-26 07:04 17.88784 -73.08674 38952 ft 543 kts 89°
2026-04-26 07:05 17.89043 -73.00735 38952 ft 543 kts 89°
2026-04-26 07:05 17.89297 -72.92855 38951 ft 544 kts 90°
2026-04-26 07:06 17.89549 -72.84904 38953 ft 545 kts 90°
2026-04-26 07:06 17.89805 -72.76958 38955 ft 545 kts 89°
2026-04-26 07:07 17.90080 -72.68999 38955 ft 545 kts 89°
2026-04-26 07:07 17.90355 -72.61027 38955 ft 545 kts 89°
2026-04-26 07:08 17.90624 -72.53113 38955 ft 547 kts 90°
2026-04-26 07:08 17.90894 -72.45115 38955 ft 548 kts 90°
2026-04-26 07:09 17.91155 -72.37121 38955 ft 548 kts 90°
2026-04-26 07:09 17.91412 -72.29128 38955 ft 547 kts 90°
2026-04-26 07:11 17.92045 -72.09176 38955 ft 549 kts 90°
2026-04-26 07:11 17.92293 -72.01158 38968 ft 549 kts 90°
2026-04-26 07:12 17.92540 -71.93131 38957 ft 549 kts 90°
2026-04-26 07:12 17.92753 -71.85109 38958 ft 551 kts 91°
2026-04-26 07:13 17.92941 -71.77065 38963 ft 551 kts 91°
2026-04-26 07:13 17.93132 -71.69011 38968 ft 551 kts 91°
2026-04-26 07:14 17.92982 -71.61028 38971 ft 549 kts 96°
2026-04-26 07:14 17.92511 -71.53017 38970 ft 549 kts 97°
2026-04-26 07:15 17.91985 -71.45007 38971 ft 550 kts 98°
2026-04-26 07:15 17.91456 -71.36999 38972 ft 550 kts 98°
2026-04-26 07:16 17.90932 -71.28985 38966 ft 550 kts 97°
2026-04-26 07:16 17.90410 -71.20978 38968 ft 550 kts 98°
2026-04-26 07:17 17.89887 -71.13016 38963 ft 550 kts 98°
2026-04-26 07:17 17.89357 -71.04997 38968 ft 550 kts 98°
2026-04-26 07:18 17.88824 -70.96993 38966 ft 550 kts 98°
2026-04-26 07:18 17.88287 -70.88975 38966 ft 550 kts 98°
2026-04-26 07:19 17.87746 -70.80950 38960 ft 551 kts 98°
2026-04-26 07:19 17.87204 -70.72957 38957 ft 552 kts 98°
2026-04-26 07:20 17.86656 -70.64923 38957 ft 552 kts 98°
2026-04-26 07:20 17.86105 -70.56880 38957 ft 552 kts 98°
2026-04-26 07:21 17.85549 -70.48836 38957 ft 553 kts 99°
2026-04-26 07:21 17.84988 -70.40770 38955 ft 554 kts 99°
2026-04-26 07:22 17.84439 -70.32752 38952 ft 554 kts 98°
2026-04-26 07:22 17.83936 -70.24675 38955 ft 554 kts 98°
2026-04-26 07:23 17.83438 -70.16595 38951 ft 555 kts 99°
2026-04-26 07:23 17.82929 -70.08518 38955 ft 555 kts 99°
2026-04-26 07:24 17.82410 -70.00427 38955 ft 555 kts 99°
2026-04-26 07:24 17.81886 -69.92344 38955 ft 555 kts 99°
2026-04-26 07:25 17.81269 -69.84272 38948 ft 554 kts 100°
2026-04-26 07:25 17.80612 -69.76257 38955 ft 553 kts 100°
2026-04-26 07:26 17.79960 -69.68210 38955 ft 553 kts 100°
2026-04-26 07:26 17.79317 -69.60164 38952 ft 553 kts 100°
2026-04-26 07:27 17.78782 -69.53469 38952 ft 553 kts 100°
2026-04-26 07:27 17.78138 -69.45431 38955 ft 552 kts 100°
2026-04-26 07:28 17.77494 -69.37451 38955 ft 552 kts 100°
2026-04-26 07:28 17.76924 -69.29412 38955 ft 553 kts 99°
2026-04-26 07:29 17.76434 -69.21367 38955 ft 553 kts 99°
2026-04-26 07:29 17.75892 -69.13326 38958 ft 550 kts 100°
2026-04-26 07:30 17.75253 -69.05335 38952 ft 549 kts 101°
2026-04-26 07:30 17.74601 -68.97347 38951 ft 550 kts 100°
2026-04-26 07:31 17.73959 -68.89352 38956 ft 550 kts 100°
2026-04-26 07:31 17.73326 -68.81411 38949 ft 549 kts 100°
2026-04-26 07:32 17.72689 -68.73429 38957 ft 549 kts 100°
2026-04-26 07:32 17.72051 -68.65456 38958 ft 549 kts 100°
2026-04-26 07:33 17.71407 -68.57481 38955 ft 549 kts 100°
2026-04-26 07:33 17.70758 -68.49503 38959 ft 549 kts 101°
2026-04-26 07:34 17.70106 -68.41515 38959 ft 549 kts 101°
2026-04-26 07:34 17.69456 -68.33592 38959 ft 549 kts 101°
2026-04-26 07:35 17.68798 -68.25600 38954 ft 549 kts 101°
2026-04-26 07:35 17.68138 -68.17624 38952 ft 549 kts 101°
2026-04-26 07:36 17.67477 -68.09662 38960 ft 548 kts 101°
2026-04-26 07:36 17.66812 -68.01709 38960 ft 547 kts 101°
2026-04-26 07:37 17.66184 -67.93799 38960 ft 548 kts 100°
2026-04-26 07:37 17.65619 -67.85826 38963 ft 548 kts 99°
2026-04-26 07:38 17.65053 -67.77853 38964 ft 548 kts 100°
2026-04-26 07:38 17.64473 -67.69880 38963 ft 548 kts 100°
2026-04-26 07:39 17.63885 -67.61915 38963 ft 548 kts 100°
2026-04-26 07:39 17.63295 -67.53984 38957 ft 548 kts 100°
2026-04-26 07:40 17.62702 -67.46034 38962 ft 546 kts 100°
2026-04-26 07:40 17.62106 -67.38102 38963 ft 545 kts 100°
2026-04-26 07:41 17.61507 -67.30172 38963 ft 545 kts 100°
2026-04-26 07:41 17.60908 -67.22298 38965 ft 545 kts 100°
2026-04-26 07:42 17.60305 -67.14386 38967 ft 544 kts 100°
2026-04-26 07:42 17.59700 -67.06490 38968 ft 543 kts 100°
2026-04-26 07:43 17.59091 -66.98602 38967 ft 543 kts 100°
2026-04-26 07:43 17.58478 -66.90703 38970 ft 543 kts 100°
2026-04-26 07:44 17.57863 -66.82814 38966 ft 543 kts 99°
2026-04-26 07:44 17.57245 -66.74926 38968 ft 543 kts 99°
2026-04-26 07:45 17.56629 -66.67091 38971 ft 543 kts 99°
2026-04-26 07:45 17.56004 -66.59197 38976 ft 543 kts 99°
2026-04-26 07:46 17.55376 -66.51298 38972 ft 543 kts 99°
2026-04-26 07:46 17.54745 -66.43404 38978 ft 544 kts 99°
2026-04-26 07:47 17.54114 -66.35552 38973 ft 544 kts 99°
2026-04-26 07:47 17.53478 -66.27664 38981 ft 543 kts 99°
2026-04-26 07:48 17.52837 -66.19772 38973 ft 544 kts 100°
2026-04-26 07:48 17.52193 -66.11869 38975 ft 544 kts 100°
2026-04-26 07:49 17.51545 -66.03970 38980 ft 544 kts 100°
2026-04-26 07:49 17.50895 -65.96064 38977 ft 544 kts 100°
2026-04-26 07:50 17.49916 -65.84244 38983 ft 544 kts 100°
2026-04-26 07:50 17.49062 -65.76388 38981 ft 540 kts 105°
2026-04-26 07:51 17.47710 -65.68656 38974 ft 539 kts 107°
2026-04-26 07:51 17.46267 -65.60944 38970 ft 539 kts 107°
2026-04-26 07:52 17.44821 -65.53262 38983 ft 537 kts 107°
2026-04-26 07:52 17.43380 -65.45580 38980 ft 536 kts 107°
2026-04-26 07:53 17.41955 -65.37964 38976 ft 536 kts 107°
2026-04-26 07:53 17.40517 -65.30291 38977 ft 536 kts 107°
2026-04-26 07:54 17.39082 -65.22646 38978 ft 534 kts 107°
2026-04-26 07:54 17.37650 -65.15035 38975 ft 532 kts 107°
2026-04-26 07:55 17.36214 -65.07428 38976 ft 532 kts 107°
2026-04-26 07:55 17.34775 -64.99820 38980 ft 532 kts 107°
2026-04-26 07:56 17.33336 -64.92226 38977 ft 531 kts 107°
2026-04-26 07:56 17.31901 -64.84661 38976 ft 530 kts 107°
2026-04-26 07:57 17.30515 -64.77382 38977 ft 530 kts 107°
2026-04-26 07:57 17.29081 -64.69861 38977 ft 529 kts 107°
2026-04-26 07:58 17.27627 -64.62258 38976 ft 529 kts 107°
2026-04-26 07:58 17.26190 -64.54752 38977 ft 529 kts 107°
2026-04-26 07:59 17.24739 -64.47189 38980 ft 529 kts 107°
2026-04-26 07:59 17.23288 -64.39641 38980 ft 529 kts 107°
2026-04-26 08:00 17.21833 -64.32090 38986 ft 528 kts 107°
2026-04-26 08:00 17.20391 -64.24616 38985 ft 526 kts 107°
2026-04-26 08:01 17.18938 -64.17109 38983 ft 525 kts 107°
2026-04-26 08:01 17.17484 -64.09615 38981 ft 525 kts 107°
2026-04-26 08:02 17.16026 -64.02117 38981 ft 525 kts 107°
2026-04-26 08:02 17.14578 -63.94673 38985 ft 525 kts 107°
2026-04-26 08:03 17.13119 -63.87195 38986 ft 525 kts 107°
2026-04-26 08:03 17.11656 -63.79712 38985 ft 525 kts 107°
2026-04-26 08:04 17.10192 -63.72241 38968 ft 525 kts 107°
2026-04-26 08:04 17.09457 -63.68498 38683 ft 525 kts 106°
2026-04-26 08:04 17.08721 -63.64752 38042 ft 526 kts 106°
2026-04-26 08:05 17.07983 -63.61000 37363 ft 527 kts 106°
2026-04-26 08:05 17.07242 -63.57240 36705 ft 529 kts 106°
2026-04-26 08:05 17.06498 -63.53467 36066 ft 531 kts 106°
2026-04-26 08:05 17.05761 -63.49731 35455 ft 533 kts 106°
2026-04-26 08:06 17.05011 -63.45934 34844 ft 535 kts 105°
2026-04-26 08:06 17.04258 -63.42124 34244 ft 536 kts 105°
2026-04-26 08:06 17.03503 -63.38304 33618 ft 536 kts 105°
2026-04-26 08:06 17.02749 -63.34490 32962 ft 537 kts 105°
2026-04-26 08:07 17.01992 -63.30669 32322 ft 538 kts 105°
2026-04-26 08:07 17.01230 -63.26830 31693 ft 539 kts 105°
2026-04-26 08:07 17.00468 -63.22991 31072 ft 540 kts 105°
2026-04-26 08:07 16.99701 -63.19137 30475 ft 541 kts 105°
2026-04-26 08:08 16.98934 -63.15283 29842 ft 542 kts 104°
2026-04-26 08:08 16.98164 -63.11419 29154 ft 542 kts 104°
2026-04-26 08:08 16.97400 -63.07578 28483 ft 538 kts 104°
2026-04-26 08:08 16.96641 -63.03767 27830 ft 533 kts 104°
2026-04-26 08:09 16.95685 -63.00118 27186 ft 523 kts 114°
2026-04-26 08:09 16.94229 -62.96654 26559 ft 515 kts 118°
2026-04-26 08:09 16.92686 -62.93303 25949 ft 510 kts 119°
2026-04-26 08:09 16.91134 -62.89993 25340 ft 505 kts 119°
2026-04-26 08:10 16.89592 -62.86723 24759 ft 500 kts 119°
2026-04-26 08:10 16.88060 -62.83485 24181 ft 495 kts 119°
2026-04-26 08:10 16.86543 -62.80283 23617 ft 489 kts 119°
2026-04-26 08:10 16.85041 -62.77116 22938 ft 484 kts 119°
2026-04-26 08:11 16.83553 -62.73979 22284 ft 479 kts 119°
2026-04-26 08:11 16.82079 -62.70878 21640 ft 474 kts 119°
2026-04-26 08:11 16.80621 -62.67809 20989 ft 469 kts 119°
2026-04-26 08:11 16.79197 -62.64814 20384 ft 463 kts 119°
2026-04-26 08:12 16.77772 -62.61818 19781 ft 458 kts 118°
2026-04-26 08:12 16.76360 -62.58852 19191 ft 453 kts 118°
2026-04-26 08:12 16.74966 -62.55924 18608 ft 448 kts 118°
2026-04-26 08:12 16.73587 -62.53027 17987 ft 444 kts 118°
2026-04-26 08:13 16.72218 -62.50156 17333 ft 439 kts 118°
2026-04-26 08:13 16.70868 -62.47322 16822 ft 432 kts 118°
2026-04-26 08:13 16.69541 -62.44539 16321 ft 424 kts 118°
2026-04-26 08:13 16.68241 -62.41813 15841 ft 416 kts 118°
2026-04-26 08:14 16.66963 -62.39135 15358 ft 409 kts 118°
2026-04-26 08:14 16.65707 -62.36505 14912 ft 400 kts 118°
2026-04-26 08:14 16.64506 -62.33985 14440 ft 377 kts 118°
2026-04-26 08:14 16.63372 -62.31609 13980 ft 356 kts 118°
2026-04-26 08:15 16.62298 -62.29359 13493 ft 338 kts 119°
2026-04-26 08:15 16.61286 -62.27241 12989 ft 323 kts 119°
2026-04-26 08:15 16.60288 -62.25156 12497 ft 314 kts 119°
2026-04-26 08:15 16.59327 -62.23151 12103 ft 312 kts 119°
2026-04-26 08:16 16.58363 -62.21142 11734 ft 308 kts 119°
2026-04-26 08:16 16.57414 -62.19160 11374 ft 304 kts 119°
2026-04-26 08:16 16.56379 -62.17257 11024 ft 299 kts 128°
2026-04-26 08:16 16.55036 -62.15624 10710 ft 295 kts 136°
2026-04-26 08:17 16.54090 -62.14606 10505 ft 294 kts 136°
2026-04-26 08:17 16.52662 -62.13093 10207 ft 292 kts 137°
2026-04-26 08:17 16.51241 -62.11587 9911 ft 290 kts 136°
2026-04-26 08:17 16.49834 -62.10091 9623 ft 288 kts 136°
2026-04-26 08:18 16.48435 -62.08601 9326 ft 287 kts 136°
2026-04-26 08:18 16.47041 -62.07114 9063 ft 285 kts 136°
2026-04-26 08:18 16.45655 -62.05635 8781 ft 284 kts 136°
2026-04-26 08:18 16.44280 -62.04167 8488 ft 283 kts 136°
2026-04-26 08:19 16.42915 -62.02709 8174 ft 277 kts 136°
2026-04-26 08:19 16.41587 -62.01291 7888 ft 271 kts 136°
2026-04-26 08:19 16.40285 -61.99901 7596 ft 265 kts 136°
2026-04-26 08:19 16.39027 -61.98558 7314 ft 260 kts 136°
2026-04-26 08:20 16.37776 -61.97224 7025 ft 255 kts 136°
2026-04-26 08:20 16.36544 -61.95910 6744 ft 252 kts 136°
2026-04-26 08:20 16.35323 -61.94608 6474 ft 250 kts 136°
2026-04-26 08:20 16.34208 -61.93221 6163 ft 251 kts 123°
2026-04-26 08:21 16.33566 -61.91538 5868 ft 251 kts 105°
2026-04-26 08:21 16.33217 -61.89757 5569 ft 250 kts 102°
2026-04-26 08:21 16.32910 -61.87984 5293 ft 248 kts 102°
2026-04-26 08:21 16.32601 -61.86224 5072 ft 247 kts 102°
2026-04-26 08:22 16.32289 -61.84472 4854 ft 245 kts 102°
2026-04-26 08:22 16.31976 -61.82750 4637 ft 238 kts 102°
2026-04-26 08:22 16.31674 -61.81100 4399 ft 232 kts 102°
2026-04-26 08:22 16.31376 -61.79477 4202 ft 225 kts 102°
2026-04-26 08:23 16.31090 -61.77914 4097 ft 213 kts 102°
2026-04-26 08:23 16.30817 -61.76428 4029 ft 207 kts 102°
2026-04-26 08:23 16.30545 -61.74950 3931 ft 207 kts 102°
2026-04-26 08:23 16.30273 -61.73479 3782 ft 206 kts 102°
2026-04-26 08:24 16.30002 -61.72019 3512 ft 205 kts 102°
2026-04-26 08:24 16.29734 -61.70567 3216 ft 204 kts 102°
2026-04-26 08:24 16.29470 -61.69129 2913 ft 200 kts 102°
2026-04-26 08:24 16.29212 -61.67726 2635 ft 195 kts 101°
2026-04-26 08:25 16.28962 -61.66370 2361 ft 186 kts 101°
2026-04-26 08:25 16.28729 -61.65099 2099 ft 170 kts 102°
2026-04-26 08:25 16.28507 -61.63909 1889 ft 166 kts 101°
2026-04-26 08:25 16.28297 -61.62761 1663 ft 160 kts 101°
2026-04-26 08:26 16.28094 -61.61657 1425 ft 151 kts 101°
2026-04-26 08:26 16.27901 -61.60609 1241 ft 144 kts 102°
2026-04-26 08:26 16.27711 -61.59594 1049 ft 142 kts 101°
2026-04-26 08:26 16.27513 -61.58589 873 ft 142 kts 102°
2026-04-26 08:27 16.27332 -61.57576 686 ft 142 kts 98°
2026-04-26 08:27 16.27182 -61.56552 478 ft 143 kts 102°
2026-04-26 08:27 16.26970 -61.55539 274 ft 144 kts 104°
2026-04-26 08:27 16.26780 -61.54514 53 ft 144 kts 104°
2026-04-26 08:28 16.26597 -61.53554 35 ft 120 kts 101°
2026-04-26 08:28 16.26463 -61.52833 36 ft 83 kts 99°
2026-04-26 08:28 16.26382 -61.52391 43 ft 32 kts 100°
2026-04-26 08:28 16.26368 -61.52272 45 ft 12 kts 79°
2026-04-26 08:29 16.26428 -61.52231 45 ft 12 kts
2026-04-26 08:29 16.26519 -61.52210 44 ft 15 kts 12°
2026-04-26 08:29 16.26627 -61.52189 44 ft 11 kts
2026-04-26 08:29 16.26708 -61.52182 44 ft 11 kts 350°
2026-04-26 08:30 16.26742 -61.52237 44 ft 10 kts 274°
2026-04-26 08:30 16.26750 -61.52326 43 ft 14 kts 278°
2026-04-26 08:30 16.26769 -61.52441 42 ft 18 kts 281°
2026-04-26 08:30 16.26788 -61.52539 41 ft 10 kts 281°
2026-04-26 08:31 16.26801 -61.52596 40 ft 0 kts 292°
2026-04-26 08:31 16.26814 -61.52633 40 ft 10 kts 293°
2026-04-26 08:31 16.26853 -61.52670 39 ft 4 kts 350°
2026-04-26 08:31 16.26888 -61.52674 39 ft 6 kts 359°
2026-04-26 08:32 16.26909 -61.52672 39 ft 2 kts
2026-04-26 08:32 16.26910 -61.52671 39 ft 0 kts